Regional Weather Roundup
Issued by NWS Green Bay, WI

Home | Current Version | Previous Version | Graphics & Text | Print | Product List | Glossary Off
Versions: 1 2 3 4 5 6 7 8 9 10 11 12 13 14 15 16 17 18 19 20 21 22 23 24 25 26 27 28 29 30 31 32 33 34 35 36 37 38 39 40 41 42 43 44 45 46 47 48 49 50

000
ASUS43 KGRB 041359
RWRGRB

NORTH-CENTRAL AND NORTHEAST WISCONSIN REGIONAL WEATHER ROUNDUP
NATIONAL WEATHER SERVICE GREEN BAY WI
900 AM CDT MON MAY 04 2015

WIZ005-009-010>012-018-019-041500-
NORTH CENTRAL WISCONSIN

CITY           SKY/WX    TMP DP  RH WIND       PRES   REMARKS
IRONWOOD       SUNNY     52  39  62 NW10      30.11R
MANITOWISH WTR NOT AVBL
ARBOR VITAE    NOT AVBL
EAGLE RIVER    NOT AVBL
LAND O LAKES   NOT AVBL
RHINELANDER    MOSUNNY   54  39  57 N7        30.10R
PHILLIPS       NOT AVBL
ANTIGO         NOT AVBL
TOMAHAWK       NOT AVBL
MERRILL        NOT AVBL
$$

WIZ013-073-041500-
NORTHEAST WISCONSIN

CITY           SKY/WX    TMP DP  RH WIND       PRES   REMARKS
IRON MOUNTAIN  PTSUNNY   56  40  55 NW17      30.05R
MARINETTE      PTSUNNY   61  43  51 N8        30.03R
$$

WIZ017-030-035>037-045-041500-
CENTRAL WISCONSIN

CITY           SKY/WX    TMP DP  RH WIND       PRES   REMARKS
MEDFORD        NOT AVBL
WAUSAU         MOSUNNY   57  41  55 N12       30.07R
MOSINEE        NOT AVBL
MARSHFIELD     MOSUNNY   60  41  49 N12       30.08R
WISC RAPIDS    MOSUNNY   59  44  57 NE14      30.08R
STEVENS POINT  NOT AVBL
WAUPACA        NOT AVBL
SHAWANO        NOT AVBL
CLINTONVILLE   NOT AVBL
$$

WIZ038-039-048-051-041500-
FOX VALLEY

CITY           SKY/WX    TMP DP  RH WIND       PRES   REMARKS
NWS GREEN BAY  PTSUNNY   63  49  60 N13       30.04R
APPLETON       PTSUNNY   61  55  82 N13       30.04R
OSHKOSH        CLOUDY    62  55  77 N10       30.03R
FOND DU LAC    CLOUDY    62  56  80 N9        30.03R
$$

WIZ022-050-052-041500-
EAST CENTRAL WISCONSIN

CITY           SKY/WX    TMP DP  RH WIND       PRES   REMARKS
STURGEON BAY   PTSUNNY   59  43  55 N12       30.05R
MANITOWOC      NOT AVBL
SHEBOYGAN      CLOUDY    62  58  86 N12       30.02R
$$

LMZ563-521-522-541>543-041500-
LAKESHORE

STATION/POSITION TIME  TEMP    WIND        PRES    VSBY  WAVE
                       AIR SEA DIR/SP/G                  HT/PER
                 (UTC) (F)     (DEG/KT/KT) (MB)    (MI)  (FT/S)
SHEBOYGAN LKSHOR 1300   59     330/ 10/ 11 1016.3R
KEWAUNEE LKSHORE 1300   62     340/ 12/ 16 1015.5R
NORTHPORT PIER   1300   54     310/ 14/ 17 1016.3R
SISTER BAY LKSHO 1300   52     360/ 11/ 13   N/A
CHAMBERS ISLAND  1300   57     300/  7/ 10 1016.3R
MENOMINEE LKSHOR 1300   55     330/  9/ 10 1017.2R
$$


USA.gov is the U.S. government's official web portal to all federal, state and local government web resources and services.